User: anonymous   Login
Location: Tierra del Sol
(32.6128°N, 116.3319°W)
Time: 22:30:30
(UTC-07:00)
Language:

Tiangong 1 - Orbit

View from above orbital plane
View from above orbital plane
View from above satellite
View from above satellite

Ground track
Ground track

The orbit data is extracted from the following two-line orbital elements,

1 37820U 11053A   17291.76672299  .00033371  85394-5  12347-3 0  9999
2 37820  42.7556 159.0322 0020281 244.7475 159.6194 15.88331006347553
Epoch (UTC): 18 October 2017 18:24:04
Eccentricity: 0.0020281
inclination: 42.7556°
perigee height: 293 km
apogee height: 320 km
right ascension of ascending node: 159.0322°
argument of perigee: 244.7475°
revolutions per day: 15.88331006
mean anomaly at epoch: 159.6194°
orbit number at epoch: 34755

The dashed part of the orbit path shows where the satellite is in the earth's shadow,  

DLR